[[{"header":{"parameterUnit":"m.s-1","parameterCategory":1,"la1":30.2991,"la2":30.254,"lo1":-89.0895,"lo2":-89.0444,"dy":0.0017,"dx":0.0017,"nx":28,"ny":28,"refTime":"2023-07-23T03:00:00:Z","depth":0,"parameterNumber":2,"parameterNumberName":"U-component_of_WINDS"},"data":[0,0,0,0,0,0,0,0,0,0,0,0,0,0,0,0,0,0,0,0,0,0,0,0,0,0,0,0,0,0,0,0,0,0,0,0,0,0,0,0,0,0,0,0,0,0,0,0,0,0,0,0,0,0,0,0,0,0,2.3754,2.3755,0,2.3827,2.3828,2.3829,2.3808,2.3807,2.3805,2.3804,2.3879,2.3882,2.3886,0,0,0,0,0,0,0,0,0,0,0,0,0,2.3592,2.3595,2.3754,2.3755,2.3756,2.3827,2.3828,2.3829,2.3808,2.3807,2.3805,2.3803,2.3878,2.3882,2.3886,0,0,0,0,0,0,0,0,0,0,0,0,0,2.3664,2.3596,2.3754,2.3754,2.3755,2.3827,2.3828,2.383,2.3809,2.3807,2.3804,2.3802,2.3876,2.3881,2.3886,2.3963,0,0,2.3902,2.3904,0,0,0,0,0,0,0,0,2.3659,2.3669,2.3753,2.3754,2.3755,2.3806,2.3799,2.3874,2.3809,2.3788,2.3804,2.3801,2.3857,2.3863,2.3882,2.3967,2.397,2.3903,2.3906,2.3908,2.3909,0,0,0,0,0,0,0,2.3655,2.3666,2.3783,2.3754,2.3755,2.3749,2.3757,2.3813,2.3834,2.379,2.3789,2.3798,2.3857,2.3877,2.3884,2.3971,2.3902,2.3907,2.391,2.3912,2.4118,2.412,0,0,0,0,0,0,2.3649,2.3662,2.378,2.3785,2.3701,2.3754,2.3763,2.3792,2.3833,2.3838,2.3799,2.3796,2.3869,2.3878,2.3886,2.3975,2.3908,2.3913,2.3916,2.4115,2.4118,2.4121,0,0,0,0,0,0,2.3646,2.366,2.3778,2.3723,2.3738,2.3759,2.3792,2.3795,2.3815,2.3841,2.3844,2.3816,2.3868,2.3879,2.3943,2.3978,2.3915,2.392,2.4112,2.4116,2.4119,2.4156,0,0,0,0,0,0,2.3641,2.3659,2.3689,2.3724,2.3741,2.3834,2.3795,2.3798,2.3824,2.3821,2.3858,2.3862,2.3867,2.3936,2.3948,2.3984,2.3924,2.4109,2.4114,2.4118,2.4152,2.4161,2.4168,0,0,0,0,0,2.3635,2.3698,2.3691,2.3705,2.3779,2.3836,2.3846,2.3851,2.3827,2.3856,2.3872,2.386,2.3972,2.3942,2.3956,2.3994,2.4107,2.4113,2.4118,2.4148,2.4159,2.4168,0,0,0,0,0,0,2.3667,2.3702,2.3695,2.3771,2.38,2.3833,2.3871,2.3863,2.39,2.3895,2.39,2.3908,2.3973,2.399,2.3957,2.4068,2.4036,2.4044,2.4054,2.4065,2.4072,2.4066,2.3928,0,0,0,0,0,2.3682,2.3727,2.3755,2.3819,2.3834,2.385,2.3875,2.3876,2.3907,2.392,2.3941,2.3971,2.4012,2.404,2.408,2.4155,2.416,2.4187,2.4195,2.4201,2.4208,2.4245,2.4256,2.4138,2.4138,2.4138,0,0,2.3715,2.374,2.3768,2.3825,2.3849,2.3893,2.3861,2.391,2.3942,2.3927,2.3988,2.4004,2.4038,2.4107,2.4138,2.4123,2.4242,2.4208,2.4213,2.4216,2.4252,2.4263,2.4273,2.4142,2.4141,2.4141,0,0,2.3797,2.3822,2.3875,2.3899,2.3934,2.3943,2.3956,2.3989,2.3999,2.406,2.4049,2.4087,2.4159,2.4183,2.4204,2.4291,2.428,2.4304,2.4345,2.4381,2.439,2.4398,2.4426,2.4436,2.4311,2.4311,2.4311,0,2.3833,2.39,2.3904,2.3953,2.3977,2.3965,2.4018,2.404,2.4087,2.4103,2.4086,2.4173,2.4196,2.4268,2.4288,2.4308,2.432,2.4299,2.4389,2.4397,2.4404,2.4431,2.4442,2.4313,2.4313,2.4313,2.4312,0,2.3941,2.3987,2.4026,2.4069,2.4098,2.4149,2.4159,2.4188,2.4185,2.4196,2.4257,2.4283,2.4326,2.4343,2.4343,2.4414,2.4403,2.4387,2.4355,2.4418,2.4442,2.4453,2.4317,2.4316,2.4315,2.4315,0,0,2.4045,2.4088,2.4102,2.412,2.4156,2.4192,2.424,2.4282,2.4305,2.4337,2.4376,2.4436,2.442,2.4444,2.4446,2.4478,2.454,2.4457,2.4458,2.4469,2.4616,2.4626,2.4638,2.4533,2.4535,2.4537,2.4612,0,2.4127,2.4213,2.4217,2.4294,2.4335,2.4323,2.4365,2.4391,2.4402,2.4437,2.4449,2.4489,2.4467,2.4481,2.4512,2.4526,2.4569,2.4521,2.4568,2.4569,2.4557,2.4652,2.4663,2.4733,2.4622,2.4624,2.4625,0,2.4235,2.4268,2.435,2.4377,2.4394,2.4432,2.4468,2.4502,2.453,2.4536,2.4561,2.4557,2.4605,2.4572,2.4636,2.4603,2.4622,2.4632,2.4634,2.4637,2.46,2.4654,2.4756,2.4765,2.4641,2.464,2.4639,0,2.4299,2.4364,2.442,2.4437,2.4471,2.4497,2.4512,2.4538,2.4561,2.4593,2.4607,2.4645,2.4665,2.4693,2.4698,2.4674,2.4761,2.4729,2.4765,2.4764,2.4782,2.4781,2.4886,2.4799,2.4799,2.4799,2.4799,0,2.4389,2.4438,2.4449,2.4483,2.4537,2.454,2.4593,2.4606,2.4629,2.4664,2.4656,2.4689,2.4695,2.4729,2.4734,2.4784,2.4794,2.4798,2.4798,2.4798,2.4797,2.4809,2.4803,2.4802,2.4801,2.4801,2.48,0,2.4469,2.4478,2.4538,2.4564,2.4572,2.461,2.4632,2.4663,2.4672,2.4717,2.4727,2.4742,2.4781,2.4789,2.4836,2.4839,2.4898,2.4895,2.4888,2.4887,2.492,2.4916,2.5035,2.5049,2.4956,2.4957,2.4958,0,2.4525,2.4562,2.4591,2.4614,2.463,2.4667,2.469,2.4694,2.4718,2.4751,2.4778,2.4816,2.4846,2.4909,2.4923,2.4958,2.4954,2.4993,2.4959,2.4956,2.4951,2.4947,2.4949,2.4999,2.5,2.5001,2.5001,0,2.4621,2.4623,2.4657,2.4691,2.4719,2.4746,2.4772,2.4791,2.4798,2.4825,2.4864,2.4888,2.4934,2.4971,2.5005,2.502,2.5011,2.5012,2.5021,2.502,2.5013,2.5014,2.4903,2.5009,2.5008,2.5008,2.5007,2.5007,2.4689,2.472,2.4744,2.4781,2.48,2.4824,2.4854,2.4866,2.4899,2.4936,2.4936,2.4978,2.5002,2.5047,2.5063,2.5095,2.5083,2.5097,2.5101,2.5104,2.5105,2.501,2.5102,2.5102,2.5102,2.5101,2.5101,0,2.4782,2.4797,2.483,2.4866,2.4894,2.4883,2.491,2.4934,2.4971,2.4994,2.5024,2.5067,2.5102,2.5118,2.5151,2.5174,2.517,2.5182,2.5179,2.5182,2.5116,2.5103,2.5184,2.5184,2.5184,2.5184,2.5184,2.5184,2.4834,2.4885,2.4889,2.4948,2.4962,2.5003,2.5019,2.5039,2.5057,2.5106,2.5134,2.5144,2.5163,2.5198,2.5229,2.5232,2.5244,2.5257,2.5258,2.5196,2.5187,2.5179,2.5167,2.526,2.526,2.5322,2.5322,2.5323]},{"header":{"parameterUnit":"m.s-1","parameterCategory":1,"la1":30.2991,"la2":30.254,"lo1":-89.0895,"lo2":-89.0444,"dy":0.0017,"dx":0.0017,"nx":28,"ny":28,"refTime":"2023-07-23T03:00:00:Z","depth":0,"parameterNumber":3,"parameterNumberName":"V-component_of_WINDS"},"data":[0,0,0,0,0,0,0,0,0,0,0,0,0,0,0,0,0,0,0,0,0,0,0,0,0,0,0,0,0,0,0,0,0,0,0,0,0,0,0,0,0,0,0,0,0,0,0,0,0,0,0,0,0,0,0,0,0,0,3.2568,3.2568,0,3.2522,3.2522,3.2521,3.2433,3.2431,3.2429,3.2428,3.238,3.2381,3.2381,0,0,0,0,0,0,0,0,0,0,0,0,0,3.2578,3.2578,3.2568,3.2568,3.2567,3.2522,3.2522,3.2521,3.2433,3.2431,3.2429,3.2427,3.238,3.238,3.2381,0,0,0,0,0,0,0,0,0,0,0,0,0,3.2557,3.2578,3.2568,3.2518,3.2513,3.2522,3.2522,3.2521,3.2434,3.2431,3.2428,3.2426,3.238,3.238,3.2381,3.2436,0,0,3.2382,3.2383,0,0,0,0,0,0,0,0,3.2558,3.2557,3.2526,3.2521,3.2516,3.2481,3.2507,3.2492,3.2434,3.2464,3.2428,3.2425,3.2416,3.2413,3.241,3.2433,3.2431,3.2382,3.2383,3.2383,3.2383,0,0,0,0,0,0,0,3.256,3.2558,3.255,3.2526,3.2519,3.2497,3.2491,3.2504,3.2455,3.2461,3.2455,3.245,3.2412,3.241,3.2408,3.2431,3.2382,3.2383,3.2383,3.2383,3.2492,3.2495,0,0,0,0,0,0,3.2569,3.256,3.2551,3.2549,3.2531,3.2499,3.2492,3.2495,3.2454,3.2446,3.2453,3.2446,3.241,3.2408,3.2406,3.2464,3.2383,3.2383,3.2384,3.2489,3.2493,3.2495,0,0,0,0,0,0,3.257,3.2569,3.2553,3.2553,3.2549,3.2501,3.2505,3.2495,3.2492,3.2448,3.2439,3.2459,3.2408,3.2406,3.2428,3.2462,3.2384,3.2384,3.2486,3.249,3.2494,3.2584,0,0,0,0,0,0,3.257,3.257,3.2591,3.2554,3.2549,3.2577,3.2507,3.2496,3.2493,3.2485,3.2452,3.2444,3.2406,3.2428,3.2429,3.2461,3.2385,3.2483,3.2488,3.2493,3.2577,3.259,3.2601,0,0,0,0,0,3.2571,3.2619,3.2592,3.2592,3.2575,3.2579,3.2576,3.2532,3.2497,3.2516,3.2487,3.2445,3.2458,3.2431,3.2431,3.2464,3.2481,3.2487,3.2492,3.2572,3.2588,3.2601,0,0,0,0,0,0,3.2662,3.2613,3.2583,3.2621,3.2605,3.2564,3.2588,3.2551,3.2544,3.2537,3.2482,3.2475,3.2504,3.2486,3.2457,3.2513,3.2463,3.2469,3.2523,3.2537,3.2549,3.2552,3.2385,0,0,0,0,0,3.2686,3.2694,3.2651,3.2688,3.2682,3.2637,3.2637,3.2604,3.2585,3.2578,3.2551,3.2534,3.2533,3.2535,3.2533,3.2575,3.2564,3.2597,3.2609,3.2619,3.2624,3.2642,3.2655,3.2515,3.2514,3.2514,0,0,3.2737,3.2711,3.272,3.2706,3.2689,3.2698,3.2632,3.2644,3.2649,3.258,3.2598,3.2578,3.2555,3.2587,3.2599,3.2573,3.2661,3.2626,3.2635,3.2634,3.2649,3.2662,3.2674,3.2518,3.2518,3.2517,0,0,3.2832,3.2815,3.2842,3.2826,3.2802,3.2771,3.2778,3.2743,3.2726,3.2744,3.2691,3.2696,3.2699,3.2683,3.2676,3.2763,3.2722,3.2764,3.2825,3.2842,3.2853,3.2863,3.2891,3.2902,3.277,3.277,3.277,0,3.2897,3.2908,3.2861,3.2875,3.287,3.2807,3.2833,3.282,3.2797,3.2794,3.2765,3.2763,3.2744,3.2769,3.279,3.2788,3.2791,3.2767,3.2856,3.2865,3.2873,3.2899,3.291,3.2775,3.2774,3.2774,3.2773,0,3.2989,3.2997,3.3022,3.2999,3.2997,3.3018,3.2971,3.2974,3.2941,3.2913,3.2931,3.2905,3.2894,3.2898,3.2867,3.2919,3.2902,3.2866,3.2814,3.2892,3.2915,3.2925,3.2782,3.278,3.2779,3.2778,0,0,3.314,3.309,3.3099,3.3087,3.3055,3.306,3.3076,3.3066,3.3068,3.3054,3.3065,3.3067,3.3031,3.3023,3.2989,3.3005,3.3071,3.2965,3.2964,3.2983,3.3123,3.3149,3.3162,3.3045,3.3046,3.3048,3.3124,0,3.3226,3.3252,3.3208,3.3244,3.3249,3.3188,3.3202,3.3184,3.3157,3.3157,3.3128,3.3129,3.3084,3.3078,3.3091,3.3061,3.3098,3.3055,3.3052,3.3053,3.3057,3.3174,3.3203,3.3276,3.3133,3.3134,3.3135,0,3.3331,3.332,3.3356,3.3318,3.3319,3.3333,3.3318,3.3319,3.3295,3.3275,3.3265,3.3224,3.3236,3.3187,3.3201,3.3172,3.3169,3.3153,3.3155,3.3151,3.3097,3.3171,3.3298,3.3308,3.315,3.3149,3.3148,0,3.3434,3.3429,3.3448,3.344,3.3398,3.3408,3.3391,3.3365,3.336,3.3347,3.3343,3.3333,3.3326,3.3318,3.3275,3.3244,3.3293,3.3241,3.3274,3.3275,3.3286,3.3285,3.3411,3.3288,3.3288,3.3288,3.3287,0,3.3533,3.3557,3.3493,3.3506,3.3529,3.3478,3.3503,3.3479,3.3456,3.3461,3.3409,3.3415,3.3358,3.3357,3.3324,3.3338,3.3337,3.3319,3.3309,3.3322,3.3324,3.3317,3.331,3.329,3.329,3.3289,3.3289,0,3.3652,3.3611,3.3628,3.3586,3.3576,3.3595,3.3558,3.3566,3.3537,3.3543,3.3542,3.3495,3.3491,3.3447,3.3434,3.3411,3.3438,3.342,3.3446,3.3439,3.3473,3.3469,3.3597,3.361,3.3482,3.3483,3.3484,0,3.3717,3.3733,3.3692,3.3692,3.3677,3.3677,3.3672,3.3622,3.3619,3.3591,3.3602,3.3594,3.3584,3.358,3.3544,3.3532,3.3512,3.3558,3.351,3.3521,3.3509,3.3508,3.3507,3.3567,3.3569,3.357,3.3571,0,3.3836,3.3814,3.3808,3.3795,3.379,3.3778,3.3762,3.3764,3.3709,3.3707,3.3702,3.3695,3.368,3.3671,3.3653,3.3633,3.3592,3.3587,3.3593,3.3605,3.3619,3.3609,3.347,3.3584,3.3582,3.3581,3.3581,3.358,3.3927,3.3938,3.391,3.3905,3.3887,3.3873,3.3878,3.3848,3.3843,3.3826,3.3797,3.3796,3.3769,3.374,3.3724,3.3721,3.3697,3.3707,3.3709,3.3712,3.3717,3.3621,3.3718,3.3717,3.3717,3.3716,3.3716,0,3.404,3.4019,3.4015,3.3993,3.3989,3.3951,3.3931,3.3929,3.3928,3.3907,3.3898,3.389,3.3881,3.3844,3.383,3.3834,3.3815,3.3832,3.383,3.3825,3.3741,3.3736,3.3848,3.3848,3.3848,3.3848,3.3848,3.3847,3.4099,3.4113,3.4088,3.4092,3.4071,3.4069,3.406,3.4045,3.4027,3.4021,3.4013,3.3989,3.396,3.3943,3.3932,3.3921,3.3917,3.394,3.3923,3.3844,3.3832,3.382,3.3814,3.394,3.3941,3.4006,3.4007,3.4008]}]]